TimeEST,TemperatureF,Dew PointF,Humidity,Sea Level PressureIn,VisibilityMPH,Wind Direction,Wind SpeedMPH,Gust SpeedMPH,PrecipitationIn,Events,Conditions,WindDirDegrees,DateUTC
12:54 AM,45.0,43.0,93,30.36,7.0,Calm,Calm,-,N/A,,Clear,0,2012-12-02 05:54:00
1:54 AM,46.0,44.1,93,30.37,7.0,Calm,Calm,-,N/A,,Scattered Clouds,0,2012-12-02 06:54:00
2:54 AM,44.1,43.0,96,30.37,4.0,Calm,Calm,-,N/A,,Scattered Clouds,0,2012-12-02 07:54:00
3:54 AM,45.0,43.0,93,30.35,6.0,Calm,Calm,-,N/A,,Mostly Cloudy,0,2012-12-02 08:54:00
4:54 AM,45.0,44.1,97,30.35,5.0,Calm,Calm,-,N/A,,Mostly Cloudy,0,2012-12-02 09:54:00
5:54 AM,46.0,44.1,93,30.36,6.0,Calm,Calm,-,N/A,,Overcast,0,2012-12-02 10:54:00
6:54 AM,46.9,45.0,93,30.37,7.0,Calm,Calm,-,N/A,,Overcast,0,2012-12-02 11:54:00
8:54 AM,50.0,48.0,93,30.40,5.0,Calm,Calm,-,N/A,,Overcast,0,2012-12-02 13:54:00
9:54 AM,55.9,48.9,77,30.39,10.0,South,3.5,-,N/A,,Partly Cloudy,170,2012-12-02 14:54:00
10:54 AM,60.1,48.9,67,30.37,10.0,Variable,4.6,-,N/A,,Partly Cloudy,0,2012-12-02 15:54:00
11:22 AM,64.4,48.2,56,30.36,10.0,Variable,3.5,-,N/A,,Mostly Cloudy,0,2012-12-02 16:22:00
11:54 AM,64.0,48.0,56,30.35,10.0,SSW,8.1,-,N/A,,Overcast,210,2012-12-02 16:54:00
12:20 PM,64.4,48.2,56,30.33,10.0,Variable,5.8,-,N/A,,Mostly Cloudy,0,2012-12-02 17:20:00
12:54 PM,66.0,50.0,56,30.31,10.0,South,11.5,16.1,N/A,,Mostly Cloudy,180,2012-12-02 17:54:00
1:54 PM,68.0,52.0,56,30.28,10.0,Variable,5.8,-,N/A,,Clear,0,2012-12-02 18:54:00
2:54 PM,68.0,51.1,55,30.27,10.0,Variable,4.6,-,N/A,,Partly Cloudy,0,2012-12-02 19:54:00
4:54 PM,64.9,51.1,61,30.26,10.0,South,4.6,-,N/A,,Clear,190,2012-12-02 21:54:00
5:54 PM,61.0,51.1,70,30.26,10.0,Calm,Calm,-,N/A,,Clear,0,2012-12-02 22:54:00
6:54 PM,55.9,50.0,80,30.27,10.0,Calm,Calm,-,N/A,,Clear,0,2012-12-02 23:54:00
7:54 PM,57.0,51.1,81,30.27,9.0,Calm,Calm,-,N/A,,Clear,0,2012-12-03 00:54:00
8:54 PM,51.1,48.9,92,30.28,10.0,Calm,Calm,-,N/A,,Clear,0,2012-12-03 01:54:00
9:54 PM,50.0,48.9,96,30.27,8.0,Calm,Calm,-,N/A,,Clear,0,2012-12-03 02:54:00
10:54 PM,51.1,48.9,92,30.27,9.0,Calm,Calm,-,N/A,,Clear,0,2012-12-03 03:54:00
11:54 PM,48.9,46.9,93,30.28,7.0,Calm,Calm,-,N/A,,Clear,0,2012-12-03 04:54:00